Regional Weather Roundup
Issued by NWS Burlington, VT

Home | Current Version | Previous Version | Text Only | Print | Product List | Glossary On
Versions: 1 2 3 4 5 6 7 8 9 10 11 12 13 14 15 16 17 18 19 20 21 22 23 24 25 26 27 28 29 30 31 32 33 34 35 36 37 38 39 40 41 42 43 44 45 46 47 48 49 50
000
ASUS41 KBTV 190530
RWRBTV
VERMONT REGIONAL WEATHER ROUNDUP
NATIONAL WEATHER SERVICE BURLINGTON VT
100 AM EDT SAT APR 19 2014

NOTE: "FAIR" INDICATES FEW OR NO CLOUDS BELOW 12,000 FEET WITH NO
SIGNIFICANT WEATHER AND/OR OBSTRUCTIONS TO VISIBILITY.

* THESE REPORTS ARE NOT UNDER NWS QUALITY CONTROL AND/OR DO NOT
  REPORT WEATHER SUCH AS PRECIPITATION AND FOG.

VTZ001>019-190600-
_____VERMONT_____


CITY           SKY/WX    TMP DP  RH WIND       PRES   REMARKS
BURLINGTON     CLOUDY    47  26  44 S13       30.16F
MONTPELIER     CLOUDY    37  25  61 CALM      30.19S
MORRISVILLE    CLOUDY    37  27  67 CALM      30.16F
ST. JOHNSBURY*   N/A     35  25  66 MISG      30.15F
LYNDONVILLE*   CLOUDY    38  24  56 S6        30.16F
MIDDLEBURY*    CLOUDY    45  27  49 E7        30.17F
RUTLAND*       CLOUDY    34  25  69 SE10      30.18F
SPRINGFIELD    CLEAR     30  25  81 CALM      30.20F
HIGHGATE*      RAIN      42  36  78 CALM      30.16F
NEWPORT*       CLOUDY    42  23  46 S5        30.14F
BENNINGTON     PTCLDY    32  25  75 CALM      30.19F
SUTTON*          N/A     36 N/A N/A MISG        N/A
MT. MANSFIELD*   N/A     32 N/A N/A NW14G25     N/A

_____LAKE CHAMPLAIN_____


CITY           SKY/WX    TMP DP  RH WIND       PRES   REMARKS

$$

NYZ007-026>031-035-052-083-190600-
_____NORTHERN NEW YORK_____


CITY           SKY/WX    TMP DP  RH WIND       PRES   REMARKS
PLATTSBURGH    CLOUDY    44  28  53 CALM      30.15F
SARANAC LAKE   CLOUDY    38  37  97 W3        30.12F
MASSENA        CLOUDY    42  41  96 SW3       30.18S
OGDENSBURG*    MOCLDY    45  41  87 W6        30.18S
POTSDAM*       CLOUDY    43  43 100 W7        30.17F
WATERTOWN      MOCLDY    41  33  73 SW9       30.22S
FT DRUM        MOCLDY    41  39  93 W8        30.20R
ALBANY         MOCLDY    41  26  55 CALM      30.22S
GLENS FALLS    CLOUDY    41  29  62 CALM      30.20F

$$
NHZ002-005-011-190600-
_____NEW HAMPSHIRE_____


CITY           SKY/WX    TMP DP  RH WIND       PRES   REMARKS
LEBANON        PTCLDY    31  26  82 CALM      30.18F
KEENE          PTCLDY    32  25  74 CALM      30.20F
MT WASHINGTON  CLOUDY    23  14  68 NW47        N/A  WCI   2
PLYMOUTH         N/A     29  28  96 CALM      30.20F
WHITEFIELD     MOCLDY    31  25  78 CALM      30.16F

$$

_____REGIONAL QUEBEC LOCATIONS_____


CITY           SKY/WX    TMP DP  RH WIND       PRES   REMARKS
MONTREAL       CLOUDY    45  28  53 W3        30.14F
QUEBEC CITY    CLOUDY    39  27  60 N3        30.11
SHERBROOKE     CLOUDY    41  27  56 SW2       30.12F

_____REGIONAL ONTARIO LOCATIONS_____


CITY           SKY/WX    TMP DP  RH WIND       PRES   REMARKS
OTTAWA         PTCLDY    37  37 100 SW7       30.17R

______KEY______
VSB  - VISIBILITY IN MILES
WCI  - WIND CHILL INDEX
HX   - HEAT INDEX
$$
NNNN


USA.gov is the U.S. government's official web portal to all federal, state and local government web resources and services.